Location: Moscow
(30.9132°N, 94.8252°W)
Time: 12:51:53
(UTC+00:00)

Cosmos 1400 Rocket - Pass Details

Date: 15 November 2025
Orbit: 476 x 514 km, 81.1° (Epoch: 11 December)

Event Time Altitude Azimuth Distance (km) Brightness Sun altitude
Rises 00:41:11 0° 181° (S) 2,618 6.4 -17.2°
Reaches altitude 10° 00:43:19 10° 178° (S) 1,735 5.5 -17.6°
Maximum altitude 00:47:06 65° 96° (E) 567 2.6 -18.4°
Enters shadow 00:48:41 32° 24° (NNE) 895 3.6 -18.7°
